H1 CPF 2 NER 2024 10 30 9 304 01 glonass133 H2 1403201 9133 40001 2024 10 30 0 0 0 2024 11 2 23 45 0 900 1 1 0 0 0 1 H9 10 0 60613 0.00000 0 7052291.646 -23295827.947 -7682818.601 10 0 60613 900.00000 0 7172640.690 -24067782.347 -4564277.615 10 0 60613 1800.00000 0 7106804.250 -24479627.263 -1357241.568 10 0 60613 2700.00000 0 6904927.372 -24504023.860 1876107.095 10 0 60613 3600.00000 0 6621961.623 -24126382.119 5073091.099 10 0 60613 4500.00000 0 6315113.743 -23345542.074 8171747.805 10 0 60613 5400.00000 0 6041207.011 -22173912.369 11112024.031 10 0 60613 6300.00000 0 5854066.640 -20637060.168 13836933.459 10 0 60613 7200.00000 0 5802039.329 -18772769.251 16293654.635 10 0 60613 8100.00000 0 5925751.435 -16629605.033 18434548.848 10 0 60613 9000.00000 0 6256200.219 -14265045.619 20218078.784 10 0 60613 9900.00000 0 6813258.714 -11743255.797 21609610.699 10 0 60613 10800.00000 0 7604657.627 -9132595.598 22582085.132 10 0 60613 11700.00000 0 8625487.895 -6502965.794 23116543.515 10 0 60613 12600.00000 0 9858245.990 -3923099.576 23202500.626 10 0 60613 13500.00000 0 11273421.603 -1457911.774 22838155.539 10 0 60613 14400.00000 0 12830604.783 833985.180 22030436.558 10 0 60613 15300.00000 0 14480067.990 2902496.091 20794878.517 10 0 60613 16200.00000 0 16164758.512 4707897.038 19155333.859 10 0 60613 17100.00000 0 17822619.310 6222251.800 17143521.934 10 0 60613 18000.00000 0 19389142.154 7430331.719 14798424.095 10 0 60613 18900.00000 0 20800046.629 8330000.683 12165535.180 10 0 60613 19800.00000 0 21993972.735 8932049.190 9295985.018 10 0 60613 20700.00000 0 22915073.546 9259484.602 6245546.451 10 0 60613 21600.00000 0 23515398.067 9346307.794 3073548.940 10 0 60613 22500.00000 0 23756962.856 9235828.325 -158280.891 10 0 60613 23400.00000 0 23613423.770 8978590.092 -3387028.557 10 0 60613 24300.00000 0 23071276.056 8629996.262 -6549826.364 10 0 60613 25200.00000 0 22130530.958 8247735.313 -9585088.220 10 0 60613 26100.00000 0 20804839.376 7889118.601 -12433719.222 10 0 60613 27000.00000 0 19121056.726 7608443.693 -15040275.324 10 0 60613 27900.00000 0 17118267.015 7454496.472 -17354049.476 10 0 60613 28800.00000 0 14846307.186 7468298.904 -19330062.358 10 0 60613 29700.00000 0 12363853.933 7681198.610 -20929938.123 10 0 60613 30600.00000 0 9736153.486 8113381.525 -22122648.129 10 0 60613 31500.00000 0 7032489.732 8772870.699 -22885108.586 10 0 60613 32400.00000 0 4323496.625 9655053.422 -23202621.172 10 0 60613 33300.00000 0 1678426.896 10742756.417 -23069148.900 10 0 60613 34200.00000 0 -837509.466 12006865.622 -22487422.824 10 0 60613 35100.00000 0 -3165626.988 13407464.224 -21468878.384 10 0 60613 36000.00000 0 -5255964.582 14895440.893 -20033423.462 10 0 60613 36900.00000 0 -7069113.469 16414500.598 -18209043.262 10 0 60613 37800.00000 0 -8577598.813 17903493.628 -16031250.133 10 0 60613 38700.00000 0 -9766759.469 19298965.277 -13542389.278 10 0 60613 39600.00000 0 -10635091.185 20537819.512 -10790813.922 10 0 60613 40500.00000 0 -11194040.925 21559985.207 -7829945.927 10 0 60613 41400.00000 0 -11467262.845 22310973.505 -4717239.967 10 0 60613 42300.00000 0 -11489368.767 22744219.350 -1513071.230 10 0 60613 43200.00000 0 -11304227.005 22823109.307 1720431.952 10 0 60613 44100.00000 0 -10962882.096 22522610.807 4920588.146 10 0 60613 45000.00000 0 -10521183.707 21830434.604 8025372.446 10 0 60613 45900.00000 0 -10037224.947 20747681.639 10974612.556 10 0 60613 46800.00000 0 -9568698.122 19288946.966 13711148.551 10 0 60613 47700.00000 0 -9170279.259 17481875.894 16181934.237 10 0 60613 48600.00000 0 -8891151.379 15366190.190 18339059.355 10 0 60613 49500.00000 0 -8772770.605 12992224.045 20140673.420 10 0 60613 50400.00000 0 -8846969.054 10419029.706 21551793.853 10 0 60613 51300.00000 0 -9134474.376 7712130.374 22544983.303 10 0 60613 52200.00000 0 -9643908.604 4941012.420 23100883.413 10 0 60613 53100.00000 0 -10371309.063 2176459.777 23208594.824 10 0 60613 54000.00000 0 -11300192.523 -512160.103 22865895.975 10 0 60613 54900.00000 0 -12402161.250 -3059547.231 22079296.020 10 0 60613 55800.00000 0 -13638027.003 -5406947.814 20863920.124 10 0 60613 56700.00000 0 -14959407.440 -7504358.449 19243228.432 10 0 60613 57600.00000 0 -16310729.357 -9312364.559 17248572.970 10 0 60613 58500.00000 0 -17631555.886 -10803536.681 14918599.940 10 0 60613 59400.00000 0 -18859140.665 -11963326.449 12298507.876 10 0 60613 60300.00000 0 -19931101.964 -12790424.808 9439175.104 10 0 60613 61200.00000 0 -20788104.003 -13296567.499 6396172.913 10 0 60613 62100.00000 0 -21376431.896 -13505796.188 3228683.342 10 0 60613 63000.00000 0 -21650350.593 -13453206.706 -1657.146 10 0 60613 63900.00000 0 -21574146.964 -13183237.876 -3231965.002 10 0 60613 64800.00000 0 -21123767.383 -12747574.071 -6399343.480 10 0 60613 65700.00000 0 -20287980.281 -12202751.388 -9442117.936 10 0 60613 66600.00000 0 -19069013.316 -11607570.021 -12301047.135 10 0 60613 67500.00000 0 -17482637.333 -11020423.765 -14920485.833 10 0 60613 68400.00000 0 -15557692.855 -10496660.986 -17249474.961 10 0 60613 69300.00000 0 -13335078.708 -10086089.893 -19242737.436 10 0 60613 70200.00000 0 -10866245.135 -9830734.432 -20861559.890 10 0 60613 71100.00000 0 -8211254.689 -9762936.191 -22074543.172 10 0 60613 72000.00000 0 -5436492.220 -9903882.589 -22858207.393 10 0 60613 72900.00000 0 -2612119.769 -10262623.285 -23197440.416 10 0 60613 73800.00000 0 190617.559 -10835615.856 -23085781.906 10 0 60613 74700.00000 0 2902122.756 -11606819.283 -22525538.345 10 0 60613 75600.00000 0 5457102.043 -12548330.715 -21527727.691 10 0 60613 76500.00000 0 7797034.501 -13621538.121 -20111855.512 10 0 60613 77400.00000 0 9872354.683 -14778739.900 -18305527.637 10 0 60613 78300.00000 0 11644258.985 -15965163.072 -16143907.237 10 0 60613 79200.00000 0 13086062.316 -17121295.073 -13669027.195 10 0 60613 80100.00000 0 14184050.408 -18185431.196 -10928971.185 10 0 60613 81000.00000 0 14937794.128 -19096330.741 -7976939.397 10 0 60613 81900.00000 0 15359914.572 -19795870.499 -4870216.863 10 0 60613 82800.00000 0 15475310.446 -20231584.275 -1669064.350 10 0 60613 83700.00000 0 15319881.662 -20358981.987 1564446.899 10 0 60613 84600.00000 0 14938803.926 -20143551.048 4767634.173 10 0 60613 85500.00000 0 14384427.684 -19562356.020 7878413.011 10 0 60614 0.00000 0 13713890.430 -18605169.374 10836494.239 10 0 60614 900.00000 0 12986542.655 -17275085.018 13584547.049 10 0 60614 1800.00000 0 12261296.698 -15588589.698 16069302.113 10 0 60614 2700.00000 0 11594008.603 -13575086.760 18242579.142 10 0 60614 3600.00000 0 11035003.686 -11275892.304 20062215.645 10 0 60614 4500.00000 0 10626849.224 -8742743.891 21492881.003 10 0 60614 5400.00000 0 10402467.697 -6035882.553 22506760.428 10 0 60614 6300.00000 0 10383669.851 -3221786.320 23084095.879 10 0 60614 7200.00000 0 10580169.434 -370647.896 23213573.663 10 0 60614 8100.00000 0 10989121.516 2446300.276 22892551.106 10 0 60614 9000.00000 0 11595204.651 5159503.924 22127117.493 10 0 60614 9900.00000 0 12371244.506 7703736.074 20931987.403 10 0 60614 10800.00000 0 13279354.030 10020568.267 19330227.582 10 0 60614 11700.00000 0 14272543.520 12060561.673 17352821.479 10 0 60614 12600.00000 0 15296734.009 13785087.183 15038078.758 10 0 60614 13500.00000 0 16293090.139 15167698.631 12430900.098 10 0 60614 14400.00000 0 17200574.732 16195001.750 9581910.625 10 0 60614 15300.00000 0 17958617.396 16866982.348 6546478.197 10 0 60614 16200.00000 0 18509784.091 17196779.952 3383635.400 10 0 60614 17100.00000 0 18802334.078 17209916.594 154926.350 10 0 60614 18000.00000 0 18792554.933 16943013.640 -3076798.630 10 0 60614 18900.00000 0 18446775.518 16442051.493 -6248616.083 10 0 60614 19800.00000 0 17742970.287 15760246.610 -9298765.130 10 0 60614 20700.00000 0 16671885.694 14955636.768 -12167860.434 10 0 60614 21600.00000 0 15237639.882 14088477.950 -14800057.647 10 0 60614 22500.00000 0 13457769.325 13218564.197 -17144147.608 10 0 60614 23400.00000 0 11362719.794 12402584.907 -19154557.227 10 0 60614 24300.00000 0 8994802.582 11691632.076 -20792237.203 10 0 60614 25200.00000 0 6406659.615 11128963.328 -22025419.319 10 0 60614 26100.00000 0 3659301.689 10748115.237 -22830228.885 10 0 60614 27000.00000 0 819801.834 10571446.257 -23191141.078 10 0 60614 27900.00000 0 -2041260.014 10609170.093 -23101273.138 10 0 60614 28800.00000 0 -4852494.770 10858919.364 -22562507.644 10 0 60614 29700.00000 0 -7544432.522 11305857.005 -21585445.401 10 0 60614 30600.00000 0 -10052168.720 11923329.730 -20189189.629 10 0 60614 31500.00000 0 -12317819.156 12674035.173 -18400966.341 10 0 60614 32400.00000 0 -14292682.936 13511652.897 -16255588.710 10 0 60614 33300.00000 0 -15939024.963 14382870.102 -13794776.114 10 0 60614 34200.00000 0 -17231405.327 15229716.493 -11066341.199 10 0 60614 35100.00000 0 -18157501.916 15992109.896 -8123260.730 10 0 60614 36000.00000 0 -18718393.687 16610505.520 -5022648.152 10 0 60614 36900.00000 0 -18928294.339 17028537.429 -1824647.676 10 0 60614 37800.00000 0 -18813749.093 17195541.191 1408728.835 10 0 60614 38700.00000 0 -18412329.463 17068851.668 4614799.836 10 0 60614 39600.00000 0 -17770881.775 16615779.286 7731423.898 10 0 60614 40500.00000 0 -16943403.664 15815181.591 10698198.183 10 0 60614 41400.00000 0 -15988638.085 14658563.773 13457622.735 10 0 60614 42300.00000 0 -14967486.018 13150661.390 15956208.461 10 0 60614 43200.00000 0 -13940346.390 11309480.087 18145507.850 10 0 60614 44100.00000 0 -12964494.591 9165789.521 19983049.102 10 0 60614 45000.00000 0 -12091609.219 6762091.276 21433156.089 10 0 60614 45900.00000 0 -11365550.420 4151102.247 22467638.847 10 0 60614 46800.00000 0 -10820482.711 1393814.914 23066341.610 10 0 60614 47700.00000 0 -10479420.885 -1442786.585 23217537.930 10 0 60614 48600.00000 0 -10353260.065 -4288261.388 22918165.180 10 0 60614 49500.00000 0 -10440330.999 -7071394.208 22173893.468 10 0 60614 50400.00000 0 -10726499.861 -9722914.913 20999026.996 10 0 60614 51300.00000 0 -11185809.210 -12178143.502 19416238.809 10 0 60614 52200.00000 0 -11781634.098 -14379451.215 17456142.970 10 0 60614 53100.00000 0 -12468305.636 -16278435.722 15156711.301 10 0 60614 54000.00000 0 -13193134.402 -17837719.793 12562544.868 10 0 60614 54900.00000 0 -13898748.911 -19032298.227 9724013.422 10 0 60614 55800.00000 0 -14525650.559 -19850376.413 6696278.876 10 0 60614 56700.00000 0 -15014876.846 -20293665.153 3538221.546 10 0 60614 57600.00000 0 -15310659.506 -20377119.265 311290.148 10 0 60614 58500.00000 0 -15362964.024 -20128131.053 -2921701.452 10 0 60614 59400.00000 0 -15129801.655 -19585213.071 -6097806.459 10 0 60614 60300.00000 0 -14579214.590 -18796226.403 -9155181.225 10 0 60614 61200.00000 0 -13690848.718 -17816230.249 -12034299.802 10 0 60614 62100.00000 0 -12457046.082 -16705044.771 -14679122.170 10 0 60614 63000.00000 0 -10883409.611 -15524631.314 -17038192.344 10 0 60614 63900.00000 0 -8988815.414 -14336401.791 -19065644.211 10 0 60614 64800.00000 0 -6804871.352 -13198571.672 -20722095.134 10 0 60614 65700.00000 0 -4374844.217 -12163668.822 -21975409.908 10 0 60614 66600.00000 0 -1752100.232 -11276303.383 -22801320.543 10 0 60614 67500.00000 0 1001876.020 -10571292.366 -23183890.419 10 0 60614 68400.00000 0 3819801.665 -10072217.268 -23115814.638 10 0 60614 69300.00000 0 6631158.030 -9790474.400 -22598551.598 10 0 60614 70200.00000 0 9364889.189 -9724856.679 -21642284.176 10 0 60614 71100.00000 0 11952124.894 -9861683.137 -20265712.049 10 0 60614 72000.00000 0 14328815.315 -10175469.422 -18495679.831 10 0 60614 72900.00000 0 16438169.088 -10630109.898 -16366648.767 10 0 60614 73800.00000 0 18232794.429 -11180520.619 -13920022.464 10 0 60614 74700.00000 0 19676455.521 -11774673.281 -11203339.943 10 0 60614 75600.00000 0 20745372.491 -12355933.982 -8269351.654 10 0 60614 76500.00000 0 21429012.262 -12865607.983 -5174996.292 10 0 60614 77400.00000 0 21730338.714 -13245583.154 -1980298.165 10 0 60614 78300.00000 0 21665513.106 -13440960.675 1252793.685 10 0 60614 79200.00000 0 21263058.503 -13402562.220 4461602.295 10 0 60614 80100.00000 0 20562524.196 -13089208.004 7583932.541 10 0 60614 81000.00000 0 19612706.839 -12469669.706 10559270.684 10 0 60614 81900.00000 0 18469503.331 -11524215.877 13329950.831 10 0 60614 82800.00000 0 17193485.655 -10245684.367 15842266.130 10 0 60614 83700.00000 0 15847299.245 -8640036.062 18047503.695 10 0 60614 84600.00000 0 14492993.643 -6726365.617 19902883.824 10 0 60614 85500.00000 0 13189396.807 -4536367.432 21372385.857 10 0 60615 0.00000 0 11989642.653 -2113277.766 22427445.159 10 0 60615 900.00000 0 10938954.180 489666.034 23047508.609 10 0 60615 1800.00000 0 10072776.161 3211183.645 23220436.715 10 0 60615 2700.00000 0 9415333.197 5984251.972 22942746.365 10 0 60615 3600.00000 0 8978675.102 8738650.477 22219687.665 10 0 60615 4500.00000 0 8762249.154 11403648.640 21065153.321 10 0 60615 5400.00000 0 8753017.675 13910724.916 19501421.319 10 0 60615 6300.00000 0 8926116.561 16196205.022 17558734.769 10 0 60615 7200.00000 0 9246027.678 18203710.183 15274725.892 10 0 60615 8100.00000 0 9668216.351 19886313.402 12693694.224 10 0 60615 9000.00000 0 10141165.312 21208313.584 9865752.064 10 0 60615 9900.00000 0 10608719.350 22146552.885 6845853.162 10 0 60615 10800.00000 0 11012641.359 22691221.661 3692723.214 10 0 60615 11700.00000 0 11295271.015 22846116.841 467713.102 10 0 60615 12600.00000 0 11402172.551 22628342.641 -2766402.257 10 0 60615 13500.00000 0 11284658.179 22067466.292 -5946655.205 10 0 60615 14400.00000 0 10902078.785 21204164.700 -9011121.703 10 0 60615 15300.00000 0 10223783.339 20088419.822 -11900137.427 10 0 60615 16200.00000 0 9230662.536 18777339.762 -14557468.725 10 0 60615 17100.00000 0 7916210.065 17332698.573 -16931414.613 10 0 60615 18000.00000 0 6287055.509 15818299.579 -18975817.562 10 0 60615 18900.00000 0 4362945.528 14297274.279 -20650962.990 10 0 60615 19800.00000 0 2176173.434 12829431.235 -21924349.916 10 0 60615 20700.00000 0 -229519.304 11468766.826 -22771318.063 10 0 60615 21600.00000 0 -2800523.896 10261242.394 -23175519.829 10 0 60615 22500.00000 0 -5475361.527 9242920.575 -23129228.744 10 0 60615 23400.00000 0 -8187013.913 8438538.127 -22633479.311 10 0 60615 24300.00000 0 -10865490.230 7860573.819 -21698036.426 10 0 60615 25200.00000 0 -13440523.973 7508849.001 -20341195.779 10 0 60615 26100.00000 0 -15844288.023 7370675.976 -18589419.785 10 0 60615 27000.00000 0 -18014015.733 7421546.398 -16476816.591 10 0 60615 27900.00000 0 -19894419.892 7626329.272 -14044472.574 10 0 60615 28800.00000 0 -21439809.911 7940926.974 -11339651.438 10 0 60615 29700.00000 0 -22615820.192 8314318.633 -8414875.456 10 0 60615 30600.00000 0 -23400678.880 8690904.112 -5326906.594 10 0 60615 31500.00000 0 -23785965.229 9013049.380 -2135647.182 10 0 60615 32400.00000 0 -23776825.136 9223725.751 1097018.717 10 0 60615 33300.00000 0 -23391636.914 9269131.568 4308420.978 10 0 60615 34200.00000 0 -22661142.148 9101185.795 7436313.140 10 0 60615 35100.00000 0 -21627078.753 8679788.343 10420073.015 10 0 60615 36000.00000 0 -20340373.861 7974751.749 13201871.299 10 0 60615 36900.00000 0 -18858972.427 6967322.597 15727785.934 10 0 60615 37800.00000 0 -17245392.369 5651228.104 17948841.166 10 0 60615 38700.00000 0 -15564108.207 4033203.059 19821951.784 10 0 60615 39600.00000 0 -13878872.193 2132973.805 21310754.781 10 0 60615 40500.00000 0 -12250084.274 -17301.589 22386312.906 10 0 60615 41400.00000 0 -10732320.131 -2374115.384 23027676.891 10 0 60615 42300.00000 0 -9372119.995 -4884171.243 23222295.639 10 0 60615 43200.00000 0 -8206130.059 -7486361.336 22966266.393 10 0 60615 44100.00000 0 -7259673.833 -10114079.120 22264419.695 10 0 60615 45000.00000 0 -6545813.035 -12697773.323 21130236.801 10 0 60615 45900.00000 0 -6064937.372 -15167638.341 19585600.286 10 0 60615 46800.00000 0 -5804900.600 -17456330.168 17660381.563 10 0 60615 47700.00000 0 -5741697.450 -19501595.324 15391872.132 10 0 60615 48600.00000 0 -5840653.297 -21248703.370 12824068.520 10 0 60615 49500.00000 0 -6058076.647 -22652581.291 10006823.772 10 0 60615 50400.00000 0 -6343304.815 -23679559.946 6994881.384 10 0 60615 51300.00000 0 -6641056.080 -24308658.805 3846810.104 10 0 60615 52200.00000 0 -6893988.269 -24532354.422 623860.434 10 0 60615 53100.00000 0 -7045354.527 -24356799.762 -2611234.391 10 0 60615 54000.00000 0 -7041642.525 -23801484.851 -5795488.740 10 0 60615 54900.00000 0 -6835083.854 -22898353.021 -8866901.228 10 0 60615 55800.00000 0 -6385925.692 -21690410.281 -11765672.292 10 0 60615 56700.00000 0 -5664366.987 -20229887.066 -14435377.820 10 0 60615 57600.00000 0 -4652075.806 -18576030.616 -16824074.949 10 0 60615 58500.00000 0 -3343222.401 -16792621.943 -18885317.682 10 0 60615 59400.00000 0 -1744983.435 -14945322.773 -20579062.156 10 0 60615 60300.00000 0 122504.708 -13098964.741 -21872443.880 10 0 60615 61200.00000 0 2226742.087 -11314895.134 -22740412.086 10 0 60615 62100.00000 0 4523986.211 -9648490.603 -23166209.456 10 0 60615 63000.00000 0 6960851.211 -8146942.643 -23141688.684 10 0 60615 63900.00000 0 9476318.511 -6847406.790 -22667460.598 10 0 60615 64800.00000 0 12004075.279 -5775591.764 -21752871.862 10 0 60615 65700.00000 0 14475083.466 -4944846.070 -20415813.508 10 0 60615 66600.00000 0 16820272.755 -4355778.543 -18682364.658 10 0 60615 67500.00000 0 18973245.804 -3996426.877 -16586278.889 10 0 60615 68400.00000 0 20872883.794 -3842965.258 -14168323.471 10 0 60615 69300.00000 0 22465744.499 -3860919.738 -11475484.510 10 0 60615 70200.00000 0 23708153.829 -4006838.869 -8560053.428 10 0 60615 71100.00000 0 24567904.570 -4230348.166 -5478612.438 10 0 60615 72000.00000 0 25025492.357 -4476501.049 -2290938.591 10 0 60615 72900.00000 0 25074838.236 -4688326.680 941152.507 10 0 60615 73800.00000 0 24723468.427 -4809466.898 4155001.098 10 0 60615 74700.00000 0 23992144.548 -4786790.923 7288312.826 10 0 60615 75600.00000 0 22913960.291 -4572877.474 10280360.300 10 0 60615 76500.00000 0 21532942.693 -4128259.570 13073153.754 10 0 60615 77400.00000 0 19902216.631 -3423337.253 15612558.501 10 0 60615 78300.00000 0 18081809.135 -2439877.330 17849338.100 10 0 60615 79200.00000 0 16136184.928 -1172036.412 19740103.588 10 0 60615 80100.00000 0 14131615.563 373136.665 21248150.960 10 0 60615 81000.00000 0 12133491.277 2175741.440 22344171.222 10 0 60615 81900.00000 0 10203686.907 4203609.363 23006819.693 10 0 60615 82800.00000 0 8398090.965 6413407.772 23223133.710 10 0 60615 83700.00000 0 6764400.180 8752220.232 22988790.636 10 0 60615 84600.00000 0 5340270.898 11159539.380 22308200.817 10 0 60615 85500.00000 0 4151904.087 13569591.112 21194433.058 10 0 60616 0.00000 0 3213122.878 15913894.728 19668973.341 10 0 60616 900.00000 0 2524980.687 18123954.856 17761319.448 10 0 60616 1800.00000 0 2075917.572 20133970.596 15508420.364 10 0 60616 2700.00000 0 1842456.695 21883453.339 12953967.466 10 0 60616 3600.00000 0 1790412.945 23319640.626 10147552.225 10 0 60616 4500.00000 0 1876562.182 24399605.762 7143705.402 10 0 60616 5400.00000 0 2050700.457 25091973.852 4000836.196 10 0 60616 6300.00000 0 2258005.588 25378171.336 780092.037 10 0 60616 7200.00000 0 2441600.292 25253155.661 -2455838.237 10 0 60616 8100.00000 0 2545207.156 24725593.711 -5643953.716 10 0 60616 9000.00000 0 2515781.551 23817481.067 -8722178.251 10 0 60616 9900.00000 0 2306009.395 22563218.013 -11630579.458 10 0 60616 10800.00000 0 1876562.395 21008181.475 -14312544.960 10 0 60616 11700.00000 0 1198013.813 19206853.508 -16715891.957 10 0 60616 12600.00000 0 252332.414 17220585.816 -18793887.669 10 0 60616 13500.00000 0 -966109.590 15115095.040 -20506160.387 10 0 60616 14400.00000 0 -2450057.950 12957794.720 -21819483.294 10 0 60616 15300.00000 0 -4179447.879 10815076.311 -22708416.070 10 0 60616 16200.00000 0 -6122023.047 8749653.368 -23155792.361 10 0 60616 17100.00000 0 -8234476.344 6818079.773 -23153044.411 10 0 60616 18000.00000 0 -10464064.806 5068545.134 -22700359.428 10 0 60616 18900.00000 0 -12750631.294 3539038.379 -21806665.530 10 0 60616 19800.00000 0 -15028948.705 2255954.764 -20489448.376 10 0 60616 20700.00000 0 -17231289.080 1233202.762 -18774402.700 10 0 60616 21600.00000 0 -19290110.830 471846.175 -16694926.049 10 0 60616 22500.00000 0 -21140752.479 -39705.531 -14291464.837 10 0 60616 23400.00000 0 -22724021.091 -324968.631 -11610725.603 10 0 60616 24300.00000 0 -23988568.062 -418150.588 -8704766.801 10 0 60616 25200.00000 0 -24892953.788 -362462.959 -5629988.675 10 0 60616 26100.00000 0 -25407315.673 -208053.883 -2446040.715 10 0 60616 27000.00000 0 -25514570.486 -9648.130 785332.262 10 0 60616 27900.00000 0 -25211101.427 176005.276 4001483.250 10 0 60616 28800.00000 0 -24506901.683 292769.890 7140072.440 10 0 60616 29700.00000 0 -23425168.862 287731.782 10140269.722 10 0 60616 30600.00000 0 -22001367.465 113672.437 12943927.357 10 0 60616 31500.00000 0 -20281798.553 -268699.687 15496700.479 10 0 60616 32400.00000 0 -18321736.178 -888853.132 17749094.290 10 0 60616 33300.00000 0 -16183207.858 -1764953.152 19657418.209 10 0 60616 34200.00000 0 -13932511.113 -2902860.027 21184629.091 10 0 60616 35100.00000 0 -11637568.740 -4295649.065 22301047.722 10 0 60616 36000.00000 0 -9365232.086 -5923673.764 22984935.153 10 0 60616 36900.00000 0 -7178643.724 -7755171.131 23222917.914 10 0 60616 37800.00000 0 -5134768.397 -9747385.714 23010253.855 10 0 60616 38700.00000 0 -3282194.254 -11848167.390 22350933.141 10 0 60616 39600.00000 0 -1659295.363 -13997978.124 21257611.802 10 0 60616 40500.00000 0 -292831.637 -16132225.691 19751378.267 10 0 60616 41400.00000 0 802955.643 -18183828.417 17861356.300 10 0 60616 42300.00000 0 1626715.043 -20085904.799 15624150.894 10 0 60616 43200.00000 0 2189807.430 -21774476.155 13083146.762 10 0 60616 44100.00000 0 2515587.213 -23191069.248 10287672.014 10 0 60616 45000.00000 0 2638172.744 -24285109.437 7292042.665 10 0 60616 45900.00000 0 2600758.022 -25016003.188 4154506.134 10 0 60616 46800.00000 0 2453537.567 -25354821.508 936104.396 10 0 60616 47700.00000 0 2251332.988 -25285512.407 -2300520.642 10 0 60616 48600.00000 0 2051022.837 -24805590.365 -5492355.430 10 0 60616 49500.00000 0 1908885.919 -23926272.966 -8577251.794 10 0 60616 50400.00000 0 1877972.093 -22672058.421 -11495147.329 10 0 60616 51300.00000 0 2005613.489 -21079761.586 -14189244.215 10 0 60616 52200.00000 0 2331182.997 -19197049.209 -16607122.485 10 0 60616 53100.00000 0 2884196.177 -17080536.403 -18701765.212 10 0 60616 54000.00000 0 3682837.929 -14793524.891 -20432475.231 10 0 60616 54900.00000 0 4732976.916 -12403478.479 -21765665.465 10 0 60616 55800.00000 0 6027709.892 -9979342.069 -22675507.691 10 0 60616 56700.00000 0 7547455.419 -7588816.597 -23144427.708 10 0 60616 57600.00000 0 9260593.239 -5295703.719 -23163438.033 10 0 60616 58500.00000 0 11124622.529 -3157430.607 -22732302.504 10 0 60616 59400.00000 0 13087790.532 -1222857.243 -21859530.521 10 0 60616 60300.00000 0 15091123.459 469543.700 -20562201.796 10 0 60616 61200.00000 0 17070774.809 1893060.064 -18865625.729 10 0 60616 62100.00000 0 18960593.146 3033611.158 -16802842.530 10 0 60616 63000.00000 0 20694802.353 3890082.112 -14413976.078 10 0 60616 63900.00000 0 22210682.683 4474109.754 -11745451.298 10 0 60616 64800.00000 0 23451141.064 4809330.961 -8849091.264 10 0 60616 65700.00000 0 24367063.696 4930126.816 -5781111.506 10 0 60616 66600.00000 0 24919353.046 4879916.852 -2601030.936 10 0 60616 67500.00000 0 25080564.560 4709076.301 629479.624 10 0 60616 68400.00000 0 24836075.034 4472564.908 3847789.192 10 0 60616 69300.00000 0 24184734.075 4227367.788 6991515.749 10 0 60616 70200.00000 0 23138971.611 4029856.468 9999729.562 10 0 60616 71100.00000 0 21724356.960 3933181.501 12814127.788 10 0 60616 72000.00000 0 19978627.720 3984806.570 15380157.971 10 0 60616 72900.00000 0 17950228.649 4224287.999 17648069.211 10 0 60616 73800.00000 0 15696420.915 4681393.309 19573871.234 10 0 60616 74700.00000 0 13281039.743 5374638.301 21120183.329 10 0 60616 75600.00000 0 10771992.938 6310304.804 22256957.277 10 0 60616 76500.00000 0 8238603.301 7481981.254 22962060.712 10 0 60616 77400.00000 0 5748904.430 8870646.694 23221709.824 10 0 60616 78300.00000 0 3367001.259 10445296.226 23030743.007 10 0 60616 79200.00000 0 1150604.132 12164083.566 22392729.873 10 0 60616 80100.00000 0 -851161.837 13975934.689 21319912.870 10 0 60616 81000.00000 0 -2599581.520 15822566.905 19832981.803 10 0 60616 81900.00000 0 -4067733.061 17640830.453 17960684.528 10 0 60616 82800.00000 0 -5241372.211 19365275.800 15739280.222 10 0 60616 83700.00000 0 -6119280.855 20930839.930 13211844.714 10 0 60616 84600.00000 0 -6713065.311 22275539.245 10427440.345 10 0 60616 85500.00000 0 -7046412.974 23343055.836 7440165.813 99